KANOPUS-V-IK

Satellite information

Favourite Embed

Satellite Type and Status

PAYLOADIN ORBIT

Key statistics

Satellite KANOPUS-V-IK at a glance.

Uptime

3074

Days in orbit

Revolutions

≈ 15.2

Per day

Orbit

SSO

Sun Synchronous Orbit

Inclination

97.4

Latest

Satellite identification and parameters

Extended collection of information and parameters for KANOPUS-V-IK.

Object identification

Identified? True

Debris? False

Object name: KANOPUS-V-IK

International designator: 2017-042A

Object number (NORAD): 42825

Object ID (CCSDS): 42825

Country: COMMONWEALTH OF INDEPENDENT STATES (CIS)

Current information (Y/N): Y

RCS size: LARGE

Orbital parameters

Period: 94.516 minutes

Inclination: 97.3681 deg

SMA: 6873.297 km

Apoapsis: 496.549 km

Periapsis: 493.775 km

RAAN: 250.4486 deg

Eccentricy: 0.00020174

Argument of periapsis: 83.9331 deg

Mean anomaly: 276.2136 deg

Mean motion: 15.23544327 rev/day

Mean motion (dot): 0.000049 rev/day2

B* drag term: 0.00020797048 1/REarth

Two-line elements (TLE)

Creation date: Dec. 12, 2025, 10:14 a.m.

Reference frame: TEME

Reference center: EARTH

Epoch: Dec. 12, 2025, 7:27 a.m. UTC

TLE line 0: 0 KANOPUS-V-IK

TLE line 1: 1 42825U 17042A 25346.31048631 .00004900 00000-0 20797-3 0 9992

TLE line 2: 2 42825 97.3681 250.4486 0002017 83.9331 276.2136 15.23544327466923

Live tracking on map

Real-time ground track for satellite KANOPUS-V-IK.

In-orbit conjunctions

There are no conjunctions computed for KANOPUS-V-IK, at the moment. Check back to stay up to date, as we update our databases every day.

Go to all conjunctions

Associated space launch

Kanopus-V-IK is a small Russian remote sensing satellite for monitoring wildfires. Weighing about 473 kg, it is intended for 5 years of operation in a 510 km sun-synchronous orbit.

KANOPUS-V-IK was lifted into orbit during the mission ‘Soyuz-2.1a/Fregat | Kanopus-V-IK’, on board a Soyuz 2.1a/Fregat-M space rocket.

The launch took place on July 14, 2017, 6:36 a.m. from 31/6.

For more information about the launch, click the button.

Launch to space Soyuz-2.1a/Fregat | Kanopus-V-IK
Soyuz-2.1a/Fregat | Kanopus-V-IK

Agency: N/A

Status: Launch was a Partial Failure

Launch date: July 14, 2017, 6:36 a.m. UTC

Rocket: Soyuz 2.1a/Fregat-M

Launch pad: 31/6

Location: Baikonur Cosmodrome, Republic of Kazakhstan

...

Latest news about this satellite

There are no fresh news available about this satellite. Check back as we update our databases every day.


Newsletter sign-up

Weekly statistics, charts and insights to help you stay on top of the space industry.